Location: Nemiskam
(49.4820°N, 111.2775°W)
Time: 10:24:04
(UTC+00:00)

ISS - Visible Passes

Search period start: 02 December 2021 00:00
Search period end: 12 December 2021 00:00
Orbit: 417 x 423 km, 51.6° (Epoch: 02 December)

Date Brightness Start Highest point End Pass type
(mag) Time Alt. Az. Time Alt. Az. Time Alt. Az.
02 Dec -3.9 01:28:45 10° WNW 01:32:10 82° NNE 01:32:21 77° ENE visible
03 Dec -3.7 00:41:33 10° WNW 00:44:57 68° NNE 00:47:13 19° E visible
03 Dec -1.4 02:18:29 10° WNW 02:20:13 25° W 02:20:13 25° W visible
04 Dec -3.3 01:31:13 10° WNW 01:34:34 57° SSW 01:35:11 47° SSE visible
05 Dec -3.6 00:43:59 10° WNW 00:47:23 78° SSW 00:50:16 14° ESE visible
05 Dec -1.1 02:21:21 10° W 02:23:17 18° SW 02:23:17 18° SW visible
05 Dec -3.7 23:56:45 10° WNW 00:00:11 83° NNE 00:03:35 10° ESE visible
06 Dec -1.8 01:33:50 10° W 01:36:46 27° SW 01:38:35 17° SSE visible
07 Dec -2.4 00:46:27 10° W 00:49:39 39° SSW 00:52:51 10° SE visible
07 Dec -3.0 23:59:09 10° WNW 00:02:30 56° SSW 00:05:49 10° SE visible
08 Dec -0.6 01:37:14 10° WSW 01:38:45 12° SW 01:40:15 10° SSW visible
09 Dec -0.8 00:49:16 10° W 00:51:43 19° SW 00:54:09 10° S visible
10 Dec -1.3 00:01:42 10° W 00:04:37 27° SW 00:07:32 10° SSE visible
